This is the latest recevied weather packets stored in our database for station/object NW1E. If no packets are shown the sender has not sent any weather packets the latest 10 day(s).
| Time | Temp. | Humidity | Pressure | Rain* | Wind** | Luminosity | Snow |
|---|---|---|---|---|---|---|---|
| 1777869397 | 21.67° C | 87% | 1016 hPa | 0 mm | - | 0 W/m² | - |
| 1777868199 | 21.67° C | 87% | 1015.8 hPa | 0 mm | - | 0 W/m² | - |
| 1777867898 | 21.67° C | 87% | 1015.8 hPa | 0 mm | - | 0 W/m² | - |
| 1777866396 | 21.67° C | 87% | 1016 hPa | 0 mm | - | 0 W/m² | - |
| 1777863995 | 21.67° C | 87% | 1016.1 hPa | 0 mm | - | 0 W/m² | - |
| 1777862196 | 21.67° C | 87% | 1016.5 hPa | 0 mm | - | 0 W/m² | - |
| 1777860695 | 21.67° C | 85% | 1016.3 hPa | 0 mm | - | 0 W/m² | - |
| 1777859494 | 21.67° C | 86% | 1016.1 hPa | 0 mm | - | 0 W/m² | - |
| 1777858894 | 21.67° C | 86% | 1016.1 hPa | 0 mm | - | 0 W/m² | - |
| 1777857095 | 22.22° C | 86% | 1015.8 hPa | 0 mm | - | 0 W/m² | - |
| 1777855893 | 22.22° C | 86% | 1015.6 hPa | 0 mm | - | 0 W/m² | - |
| 1777855294 | 22.22° C | 86% | 1015.5 hPa | 0 mm | - | 0 W/m² | - |
| 1777851993 | 22.22° C | 86% | 1014.9 hPa | 0 mm | - | 0 W/m² | - |
| 1777850793 | 22.22° C | 86% | 1014.9 hPa | 0 mm | - | 12 W/m² | - |
| 1777850192 | 22.22° C | 86% | 1014.9 hPa | 0 mm | - | 12 W/m² | - |
| 1777847079 | 22.78° C | 85% | 1014.6 hPa | 0 mm | - | 72 W/m² | - |
| 1777846582 | 22.78° C | 85% | 1014.6 hPa | 0 mm | - | 81 W/m² | - |
| 1777845982 | 22.78° C | 85% | 1014.6 hPa | 0 mm | - | 74 W/m² | - |
| 1777845382 | 22.78° C | 85% | 1014.8 hPa | 0 mm | - | 70 W/m² | - |
| 1777843767 | 22.78° C | 84% | 1015 hPa | 0 mm | - | 92 W/m² | - |
| 1777842554 | 22.78° C | 84% | 1015 hPa | 0 mm | - | 153 W/m² | - |
| 1777841765 | 23.33° C | 83% | 1015.1 hPa | 0 mm | - | 153 W/m² | - |
| 1777839453 | 22.78° C | 85% | 1015.3 hPa | 0 mm | - | 206 W/m² | - |
| 1777838155 | 22.78° C | 84% | 1015.4 hPa | 0 mm | - | 171 W/m² | - |
| 1777834232 | 22.78° C | 85% | 1016.1 hPa | 0 mm | - | 267 W/m² | - |
* Rain latest hour (hover to see other rain measurements)
** Current wind speed in m/s (hover to see current wind gust speed)